Miscellaneous Local Product
Issued by NWS Hastings, NE

Home | Current Version | Previous Version | Graphics & Text | Print | Product List | Glossary On
Versions: 1 2 3 4 5 6 7 8 9 10 11 12 13 14 15 16 17 18 19 20 21 22 23 24 25 26 27 28 29 30 31 32 33 34 35 36 37 38 39 40 41 42 43 44 45 46 47 48 49 50
246
AXUS43 KGID 090302
MISGRI

GID CWA HOURLY WEATHER ROUNDUP
NATIONAL WEATHER SERVICE HASTINGS NE
900 PM CST MON FEB 08 2016

NOTE: "FAIR" INDICATES FEW OR NO CLOUDS BELOW 12,000 FEET WITH NO
SIGNIFICANT WEATHER AND/OR OBSTRUCTIONS TO VISIBILITY.

...SOUTH CENTRAL NEBRASKA...

CITY           SKY/WX    TMP DP  RH WIND       PRES   REMARKS
GRAND ISLAND   CLEAR     23  15  71 W7        30.17F WCI  15
HASTINGS       PTCLDY    24  15  68 NW9       30.17F WCI  14
ORD            CLEAR     29  17  61 NW14      30.15F WCI  18
YORK           CLOUDY    32  23  69 NW17G25   30.16R WCI  21
AURORA         PTCLDY    30  19  65 NW14      30.18R WCI  19
LEXINGTON      CLEAR     25  16  67 NW10      30.21S WCI  15
HOLDREGE       CLEAR     27  15  61 NW9       30.21S WCI  18
HEBRON         PTCLDY    31  22  68 NW9       30.17F WCI  23

...NEBRASKA PANHANDLE...

CITY           SKY/WX    TMP DP  RH WIND       PRES   REMARKS
CHADRON        CLOUDY    33  24  69 CALM      30.25F
ALLIANCE       CLOUDY    32  26  78 NW7       30.24F WCI  26
SCOTTSBLUFF    CLEAR     33  27  78 NW9       30.28F WCI  25
SIDNEY         CLOUDY    39  28  64 NW20      30.26S WCI  29

...WESTERN AND NORTH CENTRAL NEBRASKA...

CITY           SKY/WX    TMP DP  RH WIND       PRES   REMARKS
VALENTINE      MOCLDY    28  16  60 NW8       30.20F WCI  20
AINSWORTH      MOCLDY    31  17  55 NW13      30.18S WCI  21
ONEILL         PTCLDY    30  19  64 NW13      30.15F WCI  20
BROKEN BOW     CLEAR     27  15  61 NW15      30.17S WCI  15
IMPERIAL       PTCLDY    28  19  69 W6        30.26R WCI  22
NORTH PLATTE   CLEAR     30  19  63 W13       30.22S WCI  20
MCCOOK         CLOUDY    32  20  61 W12       30.25S WCI  23

...EASTERN NEBRASKA...

CITY           SKY/WX    TMP DP  RH WIND       PRES   REMARKS
NORFOLK        CLEAR     31  20  63 NW16G24   30.10S WCI  20
SO SIOUX CITY  PTCLDY    27  15  61 N22       30.09S WCI  13
TEKAMAH        PTCLDY    27  18  69 N14       30.10R WCI  16
COLUMBUS       MOCLDY    28  16  59 NW13      30.12F WCI  18
ALBION         CLEAR     29  19  66 NW15      30.13S WCI  18
OMAHA EPPLEY   CLOUDY    24  18  77 N6        30.10S WCI  17
OFFUTT AFB     CLEAR     28  18  66 NW10      30.09S WCI  18
MILLARD        PTCLDY    29  19  65 NW10G16   30.11R WCI  20
LINCOLN        CLOUDY    32  21  64 NW16      30.13F WCI  21
NEBRASKA CITY  MOCLDY    28  20  72 NW13      30.10S WCI  17
BEATRICE       CLOUDY    32  24  71 NW13      30.14S WCI  22
FALLS CITY     CLOUDY    28  20  71 NW12      30.10F WCI  18

...NORTHERN KANSAS...

CITY           SKY/WX    TMP DP  RH WIND       PRES   REMARKS
GOODLAND       CLOUDY    25  21  85 NW5       30.27S WCI  19
HILL CITY      CLOUDY    30  20  66 W9        30.26S WCI  22
NORTON         CLOUDY    34  19  55 W14       30.23S WCI  24
PHILLIPSBURG   CLEAR     30  19  64 CALM      30.25R
SMITH CENTER   CLEAR     27  19  74 CALM      30.24R
BELOIT         CLEAR     30  19  64 W8        30.21S WCI  23
HAYS           CLEAR     30  14  51 W12       30.25S WCI  21
RUSSELL        CLEAR     30  20  66 W14       30.22F WCI  19
CONCORDIA      CLEAR     31  19  61 W12       30.19S WCI  22
SALINA         CLEAR     33  18  53 W12       30.21S WCI  24
TOPEKA         CLOUDY    32  17  54 W6        30.13R WCI  26



USA.gov is the U.S. government's official web portal to all federal, state and local government web resources and services.